| time (UTC) | temp F | wind direction | speed MPH | gust MPH | rain 1hr in | rain 24hr in | rain mn in | humidity % | barometer mb |
| 20260905162529 | 95 | 5 | 2.0 | 6.0 | 0.00 | 0.00 | 0.00 | 58 | 1014.8 |
| 20260905162030 | 95 | 355 | 3.0 | 7.0 | 0.00 | 0.00 | 0.00 | 57 | 1014.9 |
| 20260905161600 | 95 | 343 | 2.0 | 7.0 | 0.00 | 0.00 | 0.00 | 58 | 1014.9 |
| 20260905161030 | 96 | 5 | 1.0 | 5.0 | 0.00 | 0.00 | 0.00 | 61 | 1014.9 |
| 20260905160529 | 96 | 159 | 1.0 | 5.0 | 0.00 | 0.00 | 0.00 | 59 | 1014.9 |
| 20260905160058 | 96 | 82 | 1.0 | 5.0 | 0.00 | 0.00 | 0.00 | 60 | 1014.9 |
| 20260905155532 | 95 | 0 | 1.0 | 5.0 | 0.00 | 0.00 | 0.00 | 61 | 1014.9 |
| 20260905155029 | 95 | 325 | 1.0 | 3.0 | 0.00 | 0.00 | 0.00 | 62 | 1014.9 |
| 20260905154550 | 95 | 290 | 1.0 | 4.0 | 0.00 | 0.00 | 0.00 | 65 | 1015.0 |
| 20260905154030 | 94 | 0 | 1.0 | 4.0 | 0.00 | 0.00 | 0.00 | 62 | 1015.1 |
| 20260905153528 | 93 | 313 | 1.0 | 4.0 | 0.00 | 0.00 | 0.00 | 63 | 1015.1 |
| 20260905153110 | 93 | 346 | 2.0 | 5.0 | 0.00 | 0.00 | 0.00 | 63 | 1015.1 |
| 20260905152528 | 93 | 5 | 1.0 | 5.0 | 0.00 | 0.00 | 0.00 | 65 | 1015.2 |
| 20260905152033 | 93 | 279 | 3.0 | 5.0 | 0.00 | 0.00 | 0.00 | 63 | 1015.2 |
| 20260905151549 | 92 | 49 | 1.0 | 4.0 | 0.00 | 0.00 | 0.00 | 65 | 1015.1 |
| 20260905151030 | 92 | 305 | 1.0 | 4.0 | 0.00 | 0.00 | 0.00 | 68 | 1015.3 |
| 20260905150528 | 91 | 313 | 1.0 | 4.0 | 0.00 | 0.00 | 0.00 | 67 | 1015.3 |
| 20260905150058 | 91 | 318 | 1.0 | 4.0 | 0.00 | 0.00 | 0.00 | 69 | 1015.3 |
| 20260905145530 | 90 | 317 | 1.0 | 5.0 | 0.00 | 0.00 | 0.00 | 70 | 1015.3 |
| 20260905145030 | 90 | 13 | 1.0 | 5.0 | 0.00 | 0.00 | 0.00 | 71 | 1015.3 |
| 20260905144555 | 89 | 340 | 1.0 | 4.0 | 0.00 | 0.00 | 0.00 | 72 | 1015.4 |
| 20260905144029 | 89 | 0 | 0.0 | 4.0 | 0.00 | 0.00 | 0.00 | 74 | 1015.3 |
| 20260905143529 | 88 | 346 | 1.0 | 4.0 | 0.00 | 0.00 | 0.00 | 72 | 1015.3 |
| 20260905143058 | 88 | 360 | 1.0 | 3.0 | 0.00 | 0.00 | 0.00 | 74 | 1015.3 |
| 20260905142528 | 87 | 348 | 1.0 | 3.0 | 0.00 | 0.00 | 0.00 | 76 | 1015.4 |
| 20260905142029 | 86 | 0 | 0.0 | 0.0 | 0.00 | 0.00 | 0.00 | 78 | 1015.4 |
| 20260905141602 | 85 | 0 | 0.0 | 0.0 | 0.00 | 0.00 | 0.00 | 80 | 1015.4 |
| 20260905141029 | 84 | 0 | 0.0 | 0.0 | 0.00 | 0.00 | 0.00 | 84 | 1015.4 |
| 20260905140530 | 82 | 0 | 0.0 | 0.0 | 0.00 | 0.00 | 0.00 | 86 | 1015.4 |
| 20260905140106 | 81 | 0 | 0.0 | 0.0 | 0.00 | 0.00 | 0.00 | 87 | 1015.4 |
| 20260905135529 | 80 | 0 | 0.0 | 0.0 | 0.00 | 0.00 | 0.00 | 89 | 1015.4 |
| 20260905135030 | 79 | 0 | 0.0 | 0.0 | 0.00 | 0.00 | 0.00 | 91 | 1015.4 |
| 20260905134552 | 78 | 0 | 0.0 | 0.0 | 0.00 | 0.00 | 0.00 | 92 | 1015.5 |
| 20260905134030 | 77 | 0 | 0.0 | 0.0 | 0.00 | 0.00 | 0.00 | 92 | 1015.5 |
| 20260905133529 | 77 | 0 | 0.0 | 0.0 | 0.00 | 0.00 | 0.00 | 92 | 1015.4 |
| 20260905133049 | 77 | 0 | 0.0 | 0.0 | 0.00 | 0.00 | 0.00 | 93 | 1015.6 |
| 20260905132529 | 76 | 0 | 0.0 | 3.0 | 0.00 | 0.00 | 0.00 | 93 | 1015.5 |
| 20260905132029 | 76 | 0 | 0.0 | 3.0 | 0.00 | 0.00 | 0.00 | 94 | 1015.5 |
| 20260905131614 | 76 | 167 | 0.0 | 2.0 | 0.00 | 0.00 | 0.00 | 94 | 1015.4 |
| 20260905131029 | 75 | 139 | 0.0 | 2.0 | 0.00 | 0.00 | 0.00 | 95 | 1015.4 |
| 20260905130530 | 75 | 139 | 0.0 | 2.0 | 0.00 | 0.00 | 0.00 | 95 | 1015.4 |
| 20260905130055 | 75 | 173 | 1.0 | 2.0 | 0.00 | 0.00 | 0.00 | 96 | 1015.4 |
| 20260905125531 | 75 | 173 | 0.0 | 2.0 | 0.00 | 0.00 | 0.00 | 96 | 1015.3 |
| 20260905125029 | 74 | 173 | 0.0 | 2.0 | 0.00 | 0.00 | 0.00 | 96 | 1015.3 |
| 20260905124557 | 74 | 0 | 0.0 | 0.0 | 0.00 | 0.00 | 0.00 | 97 | 1015.4 |
| 20260905124034 | 74 | 0 | 0.0 | 0.0 | 0.00 | 0.00 | 0.00 | 97 | 1015.4 |
| 20260905123530 | 73 | 0 | 0.0 | 0.0 | 0.00 | 0.00 | 0.00 | 97 | 1015.3 |
| 20260905123053 | 73 | 0 | 0.0 | 0.0 | 0.00 | 0.00 | 0.00 | 97 | 1015.3 |
| 20260905122532 | 73 | 0 | 0.0 | 0.0 | 0.00 | 0.00 | 0.00 | 97 | 1015.2 |
| 20260905122029 | 73 | 0 | 0.0 | 0.0 | 0.00 | 0.00 | 0.00 | 97 | 1015.2 |
| 20260905121557 | 73 | 0 | 0.0 | 0.0 | 0.00 | 0.00 | 0.00 | 97 | 1015.2 |
| 20260905121029 | 73 | 0 | 0.0 | 0.0 | 0.00 | 0.00 | 0.00 | 97 | 1015.2 |
| 20260905120530 | 72 | 0 | 0.0 | 0.0 | 0.00 | 0.00 | 0.00 | 97 | 1015.2 |
| 20260905120059 | 72 | 0 | 0.0 | 0.0 | 0.00 | 0.00 | 0.00 | 97 | 1015.1 |
| 20260905115529 | 72 | 0 | 0.0 | 0.0 | 0.00 | 0.00 | 0.00 | 97 | 1015.1 |
| 20260905115031 | 72 | 0 | 0.0 | 0.0 | 0.00 | 0.00 | 0.00 | 97 | 1015.0 |
| 20260905114554 | 72 | 0 | 0.0 | 0.0 | 0.00 | 0.00 | 0.00 | 96 | 1015.0 |
| 20260905114032 | 72 | 0 | 0.0 | 0.0 | 0.00 | 0.00 | 0.00 | 96 | 1014.9 |
| 20260905113530 | 72 | 0 | 0.0 | 0.0 | 0.00 | 0.00 | 0.00 | 96 | 1014.8 |
| 20260905113049 | 72 | 0 | 0.0 | 0.0 | 0.00 | 0.00 | 0.00 | 96 | 1014.6 |
| 20260905112531 | 72 | 0 | 0.0 | 0.0 | 0.00 | 0.00 | 0.00 | 96 | 1014.6 |
| 20260905112031 | 72 | 0 | 0.0 | 0.0 | 0.00 | 0.00 | 0.00 | 96 | 1014.6 |
| 20260905111600 | 72 | 0 | 0.0 | 0.0 | 0.00 | 0.00 | 0.00 | 96 | 1014.5 |
| 20260905111033 | 72 | 0 | 0.0 | 0.0 | 0.00 | 0.00 | 0.00 | 96 | 1014.4 |
| 20260905110529 | 72 | 0 | 0.0 | 0.0 | 0.00 | 0.00 | 0.00 | 96 | 1014.4 |
| 20260905110059 | 72 | 0 | 0.0 | 0.0 | 0.00 | 0.00 | 0.00 | 96 | 1014.4 |
| 20260905105529 | 72 | 0 | 0.0 | 0.0 | 0.00 | 0.00 | 0.00 | 96 | 1014.3 |
| 20260905105028 | 72 | 0 | 0.0 | 0.0 | 0.00 | 0.00 | 0.00 | 96 | 1014.2 |
| 20260905104555 | 72 | 0 | 0.0 | 0.0 | 0.00 | 0.00 | 0.00 | 96 | 1014.3 |
| 20260905104029 | 72 | 0 | 0.0 | 0.0 | 0.00 | 0.00 | 0.00 | 95 | 1014.3 |
| 20260905103533 | 72 | 0 | 0.0 | 0.0 | 0.00 | 0.00 | 0.00 | 95 | 1014.2 |
| 20260905103058 | 72 | 0 | 0.0 | 0.0 | 0.00 | 0.00 | 0.00 | 95 | 1014.2 |
| 20260905102529 | 72 | 0 | 0.0 | 0.0 | 0.00 | 0.00 | 0.00 | 95 | 1014.1 |
| 20260905102028 | 72 | 0 | 0.0 | 0.0 | 0.00 | 0.00 | 0.00 | 95 | 1014.2 |
| 20260905101553 | 72 | 0 | 0.0 | 0.0 | 0.00 | 0.00 | 0.00 | 95 | 1014.1 |
| 20260905101027 | 72 | 0 | 0.0 | 0.0 | 0.00 | 0.00 | 0.00 | 95 | 1014.1 |
| 20260905100529 | 72 | 0 | 0.0 | 0.0 | 0.00 | 0.00 | 0.00 | 95 | 1014.1 |
| 20260905100108 | 72 | 0 | 0.0 | 0.0 | 0.00 | 0.00 | 0.00 | 95 | 1014.1 |
| 20260905095530 | 72 | 0 | 0.0 | 0.0 | 0.00 | 0.00 | 0.00 | 95 | 1014.1 |
| 20260905095028 | 72 | 0 | 0.0 | 0.0 | 0.00 | 0.00 | 0.00 | 94 | 1013.9 |
| 20260905094546 | 72 | 0 | 0.0 | 0.0 | 0.00 | 0.00 | 0.00 | 94 | 1014.0 |
| 20260905094028 | 72 | 0 | 0.0 | 0.0 | 0.00 | 0.00 | 0.00 | 94 | 1013.9 |
| 20260905093529 | 72 | 0 | 0.0 | 0.0 | 0.00 | 0.00 | 0.00 | 95 | 1013.9 |
| 20260905093046 | 72 | 0 | 0.0 | 0.0 | 0.00 | 0.00 | 0.00 | 95 | 1013.9 |
| 20260905092528 | 73 | 0 | 0.0 | 0.0 | 0.00 | 0.00 | 0.00 | 95 | 1013.8 |
| 20260905092029 | 73 | 0 | 0.0 | 0.0 | 0.00 | 0.00 | 0.00 | 94 | 1013.8 |
| 20260905091557 | 73 | 0 | 0.0 | 0.0 | 0.00 | 0.00 | 0.00 | 94 | 1013.7 |
| 20260905091028 | 73 | 0 | 0.0 | 0.0 | 0.00 | 0.00 | 0.00 | 94 | 1013.8 |
| 20260905090525 | 73 | 0 | 0.0 | 0.0 | 0.00 | 0.00 | 0.00 | 94 | 1013.9 |
| 20260905090106 | 73 | 0 | 0.0 | 0.0 | 0.00 | 0.00 | 0.00 | 94 | 1013.9 |
| 20260905085529 | 73 | 0 | 0.0 | 0.0 | 0.00 | 0.00 | 0.00 | 94 | 1013.8 |
| 20260905085028 | 73 | 0 | 0.0 | 0.0 | 0.00 | 0.00 | 0.00 | 94 | 1013.9 |
| 20260905084548 | 73 | 0 | 0.0 | 0.0 | 0.00 | 0.00 | 0.00 | 94 | 1014.0 |
| 20260905084035 | 73 | 0 | 0.0 | 0.0 | 0.00 | 0.00 | 0.00 | 94 | 1013.9 |
| 20260905083529 | 73 | 0 | 0.0 | 0.0 | 0.00 | 0.00 | 0.00 | 93 | 1013.9 |
| 20260905083057 | 73 | 0 | 0.0 | 0.0 | 0.00 | 0.00 | 0.00 | 93 | 1014.0 |
| 20260905082529 | 73 | 0 | 0.0 | 0.0 | 0.00 | 0.00 | 0.00 | 93 | 1013.9 |
| 20260905082030 | 73 | 0 | 0.0 | 0.0 | 0.00 | 0.00 | 0.00 | 93 | 1013.9 |
| 20260905081600 | 73 | 0 | 0.0 | 0.0 | 0.00 | 0.00 | 0.00 | 93 | 1014.0 |
| 20260905081028 | 73 | 0 | 0.0 | 0.0 | 0.00 | 0.00 | 0.00 | 93 | 1014.0 |
| 20260905080529 | 73 | 0 | 0.0 | 0.0 | 0.00 | 0.00 | 0.00 | 93 | 1013.9 |
| 20260905080054 | 73 | 0 | 0.0 | 0.0 | 0.00 | 0.00 | 0.00 | 92 | 1014.0 |
| 20260905075528 | 73 | 0 | 0.0 | 0.0 | 0.00 | 0.00 | 0.00 | 92 | 1013.9 |
| 20260905075028 | 73 | 0 | 0.0 | 0.0 | 0.00 | 0.00 | 0.00 | 92 | 1014.0 |
| 20260905074557 | 73 | 0 | 0.0 | 0.0 | 0.00 | 0.00 | 0.00 | 92 | 1014.0 |
| 20260905074029 | 73 | 0 | 0.0 | 0.0 | 0.00 | 0.00 | 0.00 | 92 | 1014.0 |
| 20260905073531 | 73 | 0 | 0.0 | 0.0 | 0.00 | 0.00 | 0.00 | 91 | 1014.1 |
| 20260905073048 | 73 | 0 | 0.0 | 0.0 | 0.00 | 0.00 | 0.00 | 91 | 1014.0 |
| 20260905072529 | 74 | 0 | 0.0 | 0.0 | 0.00 | 0.00 | 0.00 | 91 | 1014.2 |
| 20260905072029 | 74 | 0 | 0.0 | 0.0 | 0.00 | 0.00 | 0.00 | 91 | 1014.2 |
| 20260905071553 | 74 | 0 | 0.0 | 0.0 | 0.00 | 0.00 | 0.00 | 91 | 1014.2 |
| 20260905071029 | 74 | 0 | 0.0 | 0.0 | 0.00 | 0.00 | 0.00 | 91 | 1014.2 |
| 20260905070529 | 74 | 0 | 0.0 | 0.0 | 0.00 | 0.00 | 0.00 | 91 | 1014.2 |
| 20260905070059 | 74 | 0 | 0.0 | 0.0 | 0.00 | 0.00 | 0.00 | 91 | 1014.2 |
| 20260905065526 | 74 | 0 | 0.0 | 0.0 | 0.00 | 0.00 | 0.00 | 90 | 1014.3 |
| 20260905065034 | 74 | 0 | 0.0 | 0.0 | 0.00 | 0.00 | 0.00 | 90 | 1014.3 |
| 20260905064548 | 74 | 0 | 0.0 | 0.0 | 0.00 | 0.00 | 0.00 | 90 | 1014.2 |
| 20260905064035 | 74 | 0 | 0.0 | 0.0 | 0.00 | 0.00 | 0.00 | 89 | 1014.2 |
| 20260905063528 | 74 | 0 | 0.0 | 0.0 | 0.00 | 0.00 | 0.00 | 89 | 1014.4 |
| 20260905063055 | 74 | 0 | 0.0 | 0.0 | 0.00 | 0.00 | 0.00 | 89 | 1014.2 |
| 20260905062529 | 74 | 0 | 0.0 | 0.0 | 0.00 | 0.00 | 0.00 | 89 | 1014.4 |
| 20260905062030 | 75 | 0 | 0.0 | 0.0 | 0.00 | 0.00 | 0.00 | 89 | 1014.4 |
| 20260905061553 | 75 | 0 | 0.0 | 1.0 | 0.00 | 0.00 | 0.00 | 88 | 1014.4 |
| 20260905061029 | 75 | 0 | 0.0 | 1.0 | 0.00 | 0.00 | 0.00 | 88 | 1014.3 |
| 20260905060526 | 75 | 0 | 0.0 | 0.0 | 0.00 | 0.00 | 0.00 | 87 | 1014.4 |
| 20260905060052 | 75 | 0 | 0.0 | 0.0 | 0.00 | 0.00 | 0.00 | 88 | 1014.4 |
| 20260905055528 | 75 | 0 | 0.0 | 1.0 | 0.00 | 0.00 | 0.00 | 88 | 1014.4 |
| 20260905055029 | 75 | 0 | 0.0 | 1.0 | 0.00 | 0.00 | 0.00 | 88 | 1014.3 |
| 20260905054549 | 75 | 0 | 0.0 | 1.0 | 0.00 | 0.00 | 0.00 | 87 | 1014.2 |
| 20260905054029 | 75 | 0 | 0.0 | 0.0 | 0.00 | 0.00 | 0.00 | 87 | 1014.3 |
| 20260905053530 | 76 | 0 | 0.0 | 0.0 | 0.00 | 0.00 | 0.00 | 86 | 1014.2 |
| 20260905053056 | 76 | 0 | 0.0 | 0.0 | 0.00 | 0.00 | 0.00 | 86 | 1014.1 |
| 20260905052528 | 76 | 0 | 0.0 | 0.0 | 0.00 | 0.00 | 0.00 | 85 | 1014.2 |
| 20260905052028 | 76 | 0 | 0.0 | 0.0 | 0.00 | 0.00 | 0.00 | 85 | 1014.2 |
| 20260905051555 | 76 | 0 | 0.0 | 0.0 | 0.00 | 0.00 | 0.00 | 84 | 1014.3 |
| 20260905051028 | 77 | 0 | 0.0 | 1.0 | 0.00 | 0.00 | 0.00 | 84 | 1014.2 |
| 20260905050528 | 77 | 0 | 0.0 | 1.0 | 0.00 | 0.00 | 0.00 | 84 | 1014.1 |
| 20260905050057 | 77 | 0 | 0.0 | 0.0 | 0.00 | 0.00 | 0.00 | 84 | 1014.1 |
| 20260905045531 | 77 | 0 | 0.0 | 0.0 | 0.00 | 0.00 | 0.00 | 84 | 1014.2 |
| 20260905045029 | 77 | 0 | 0.0 | 1.0 | 0.00 | 0.00 | 0.00 | 84 | 1014.3 |
| 20260905044548 | 77 | 0 | 0.0 | 1.0 | 0.00 | 0.00 | 0.00 | 84 | 1014.5 |
| 20260905044028 | 77 | 0 | 0.0 | 1.0 | 0.00 | 0.00 | 0.00 | 84 | 1014.4 |
| 20260905043529 | 77 | 0 | 0.0 | 1.0 | 0.00 | 0.00 | 0.00 | 83 | 1014.5 |
| 20260905043054 | 77 | 0 | 0.0 | 1.0 | 0.00 | 0.00 | 0.00 | 83 | 1014.4 |
| 20260905042528 | 77 | 0 | 0.0 | 1.0 | 0.00 | 0.00 | 0.00 | 83 | 1014.5 |
| 20260905042029 | 77 | 0 | 0.0 | 1.0 | 0.00 | 0.00 | 0.00 | 83 | 1014.6 |
| 20260905041555 | 77 | 0 | 0.0 | 1.0 | 0.00 | 0.00 | 0.00 | 83 | 1014.5 |
| 20260905041029 | 77 | 0 | 0.0 | 2.0 | 0.00 | 0.00 | 0.00 | 84 | 1014.6 |
| 20260905040528 | 77 | 0 | 0.0 | 2.0 | 0.00 | 0.00 | 0.00 | 85 | 1014.5 |
| 20260905040054 | 77 | 0 | 0.0 | 0.0 | 0.00 | 0.00 | 0.00 | 86 | 1014.7 |
| 20260905035526 | 78 | 0 | 0.0 | 0.0 | 0.00 | 0.00 | 0.00 | 86 | 1014.7 |
| 20260905035029 | 78 | 0 | 0.0 | 0.0 | 0.00 | 0.00 | 0.00 | 86 | 1014.8 |
| 20260905034549 | 78 | 0 | 0.0 | 0.0 | 0.00 | 0.00 | 0.00 | 86 | 1014.8 |
| 20260905034029 | 78 | 0 | 0.0 | 0.0 | 0.00 | 0.00 | 0.00 | 86 | 1015.0 |
| 20260905033528 | 78 | 0 | 0.0 | 0.0 | 0.00 | 0.00 | 0.00 | 86 | 1015.0 |
| 20260905033046 | 78 | 0 | 0.0 | 0.0 | 0.00 | 0.00 | 0.00 | 86 | 1015.1 |
| 20260905032529 | 78 | 0 | 0.0 | 0.0 | 0.00 | 0.00 | 0.00 | 87 | 1015.0 |
| 20260905032028 | 78 | 0 | 0.0 | 0.0 | 0.00 | 0.00 | 0.00 | 87 | 1015.1 |
| 20260905031602 | 78 | 0 | 0.0 | 1.0 | 0.00 | 0.00 | 0.00 | 87 | 1015.1 |
| 20260905031029 | 78 | 0 | 0.0 | 1.0 | 0.00 | 0.00 | 0.00 | 87 | 1015.1 |
| 20260905030528 | 79 | 0 | 0.0 | 0.0 | 0.00 | 0.00 | 0.00 | 86 | 1015.0 |
| 20260905030049 | 79 | 0 | 0.0 | 0.0 | 0.00 | 0.00 | 0.00 | 86 | 1015.1 |
| 20260905025528 | 79 | 0 | 0.0 | 0.0 | 0.00 | 0.00 | 0.00 | 86 | 1015.0 |
| 20260905025028 | 79 | 0 | 0.0 | 2.0 | 0.00 | 0.00 | 0.00 | 86 | 1015.1 |
| 20260905024548 | 79 | 0 | 0.0 | 2.0 | 0.00 | 0.00 | 0.00 | 86 | 1015.0 |
| 20260905024028 | 79 | 0 | 0.0 | 4.0 | 0.00 | 0.00 | 0.00 | 85 | 1015.1 |
| 20260905023528 | 80 | 0 | 0.0 | 4.0 | 0.00 | 0.00 | 0.00 | 85 | 1015.0 |
| 20260905023055 | 80 | 162 | 1.0 | 4.0 | 0.00 | 0.00 | 0.00 | 85 | 1015.1 |
| 20260905022529 | 80 | 0 | 0.0 | 1.0 | 0.00 | 0.00 | 0.00 | 85 | 1015.0 |
| 20260905022029 | 80 | 0 | 0.0 | 1.0 | 0.00 | 0.00 | 0.00 | 85 | 1014.9 |
| 20260905021548 | 80 | 0 | 0.0 | 1.0 | 0.00 | 0.00 | 0.00 | 84 | 1015.0 |
| 20260905021027 | 81 | 0 | 0.0 | 1.0 | 0.00 | 0.00 | 0.00 | 84 | 1015.0 |
| 20260905020532 | 81 | 0 | 0.0 | 7.0 | 0.00 | 0.00 | 0.00 | 83 | 1015.1 |
| 20260905020057 | 81 | 0 | 0.0 | 7.0 | 0.00 | 0.00 | 0.00 | 83 | 1015.0 |
| 20260905015528 | 81 | 159 | 3.0 | 7.0 | 0.00 | 0.00 | 0.00 | 83 | 1015.0 |
| 20260905015029 | 81 | 144 | 0.0 | 2.0 | 0.00 | 0.00 | 0.00 | 81 | 1014.8 |
| 20260905014548 | 81 | 0 | 0.0 | 0.0 | 0.00 | 0.00 | 0.00 | 81 | 1014.7 |
| 20260905014029 | 82 | 0 | 0.0 | 0.0 | 0.00 | 0.00 | 0.00 | 81 | 1014.7 |
| 20260905013529 | 82 | 0 | 0.0 | 0.0 | 0.00 | 0.00 | 0.00 | 80 | 1014.7 |
| 20260905013048 | 82 | 0 | 0.0 | 0.0 | 0.00 | 0.00 | 0.00 | 80 | 1014.6 |
| 20260905012529 | 83 | 0 | 0.0 | 0.0 | 0.00 | 0.00 | 0.00 | 80 | 1014.6 |
| 20260905012029 | 83 | 0 | 0.0 | 0.0 | 0.00 | 0.00 | 0.00 | 79 | 1014.7 |
| 20260905011600 | 83 | 0 | 0.0 | 0.0 | 0.00 | 0.00 | 0.00 | 78 | 1014.6 |
| 20260905011028 | 84 | 0 | 0.0 | 0.0 | 0.00 | 0.00 | 0.00 | 77 | 1014.6 |
| 20260905010529 | 84 | 0 | 0.0 | 0.0 | 0.00 | 0.00 | 0.00 | 76 | 1014.6 |
| 20260905010105 | 84 | 0 | 0.0 | 2.0 | 0.00 | 0.00 | 0.00 | 76 | 1014.6 |
| 20260905005527 | 85 | 0 | 0.0 | 2.0 | 0.00 | 0.00 | 0.00 | 76 | 1014.6 |
| 20260905005029 | 85 | 144 | 0.0 | 2.0 | 0.00 | 0.00 | 0.00 | 75 | 1014.5 |
| 20260905004550 | 86 | 0 | 0.0 | 2.0 | 0.00 | 0.00 | 0.00 | 74 | 1014.5 |
| 20260905004033 | 86 | 0 | 0.0 | 2.0 | 0.00 | 0.00 | 0.00 | 74 | 1014.4 |
| 20260905003529 | 86 | 0 | 0.0 | 2.0 | 0.00 | 0.00 | 0.00 | 73 | 1014.6 |
| 20260905003100 | 87 | 144 | 1.0 | 3.0 | 0.00 | 0.00 | 0.00 | 73 | 1014.5 |
| 20260905002531 | 87 | 160 | 0.0 | 3.0 | 0.00 | 0.00 | 0.00 | 72 | 1014.5 |
| 20260905002029 | 88 | 147 | 1.0 | 3.0 | 0.00 | 0.00 | 0.00 | 71 | 1014.5 |
| 20260905001556 | 88 | 163 | 0.0 | 2.0 | 0.00 | 0.00 | 0.00 | 71 | 1014.6 |
| 20260905001028 | 88 | 182 | 1.0 | 2.0 | 0.00 | 0.00 | 0.00 | 70 | 1014.6 |
| 20260905000529 | 89 | 0 | 0.0 | 2.0 | 0.00 | 0.00 | 0.00 | 69 | 1014.6 |
| 20260904235526 | 90 | 182 | 0.0 | 4.0 | 0.00 | 0.00 | 0.00 | 68 | 1014.5 |
| 20260904235029 | 90 | 149 | 0.0 | 4.0 | 0.00 | 0.00 | 0.00 | 68 | 1014.6 |
| 20260904234550 | 90 | 0 | 0.0 | 3.0 | 0.00 | 0.00 | 0.00 | 67 | 1014.5 |
| 20260904234029 | 90 | 201 | 1.0 | 5.0 | 0.00 | 0.00 | 0.00 | 66 | 1014.5 |
| 20260904233530 | 91 | 185 | 2.0 | 5.0 | 0.00 | 0.00 | 0.00 | 66 | 1014.3 |
| 20260904233058 | 91 | 148 | 1.0 | 3.0 | 0.00 | 0.00 | 0.00 | 65 | 1014.1 |
| 20260904232529 | 91 | 0 | 0.0 | 3.0 | 0.00 | 0.00 | 0.00 | 65 | 1014.2 |
| 20260904232028 | 92 | 0 | 0.0 | 3.0 | 0.00 | 0.00 | 0.00 | 64 | 1014.1 |
| 20260904231557 | 92 | 196 | 1.0 | 5.0 | 0.00 | 0.00 | 0.00 | 63 | 1014.0 |
| 20260904231029 | 92 | 161 | 2.0 | 5.0 | 0.00 | 0.00 | 0.00 | 62 | 1013.9 |
| 20260904230530 | 92 | 160 | 1.0 | 6.0 | 0.00 | 0.00 | 0.00 | 62 | 1013.9 |
| 20260904230107 | 93 | 166 | 3.0 | 6.0 | 0.00 | 0.00 | 0.00 | 62 | 1013.9 |
| 20260904225528 | 93 | 126 | 2.0 | 5.0 | 0.00 | 0.00 | 0.00 | 61 | 1013.9 |
| 20260904225031 | 93 | 166 | 1.0 | 5.0 | 0.00 | 0.00 | 0.00 | 60 | 1013.8 |
| 20260904224549 | 93 | 194 | 2.0 | 6.0 | 0.00 | 0.00 | 0.00 | 60 | 1013.9 |
| 20260904224029 | 93 | 113 | 3.0 | 6.0 | 0.00 | 0.00 | 0.00 | 60 | 1014.0 |
| 20260904223527 | 93 | 0 | 1.0 | 3.0 | 0.00 | 0.00 | 0.00 | 58 | 1014.0 |
| 20260904223058 | 93 | 94 | 1.0 | 3.0 | 0.00 | 0.00 | 0.00 | 59 | 1014.1 |
| 20260904222529 | 93 | 0 | 0.0 | 2.0 | 0.00 | 0.00 | 0.00 | 58 | 1014.1 |
| 20260904222027 | 93 | 0 | 0.0 | 3.0 | 0.00 | 0.00 | 0.00 | 58 | 1014.1 |
| 20260904221600 | 93 | 0 | 0.0 | 4.0 | 0.00 | 0.00 | 0.00 | 57 | 1014.0 |
| 20260904221029 | 93 | 69 | 1.0 | 6.0 | 0.00 | 0.00 | 0.00 | 58 | 1014.1 |
| 20260904220528 | 94 | 86 | 2.0 | 7.0 | 0.00 | 0.00 | 0.00 | 57 | 1014.1 |
| 20260904220119 | 94 | 105 | 2.0 | 9.0 | 0.00 | 0.00 | 0.00 | 57 | 1014.2 |
| 20260904215531 | 94 | 112 | 3.0 | 9.0 | 0.00 | 0.00 | 0.00 | 57 | 1014.3 |
| 20260904215029 | 94 | 109 | 5.0 | 9.0 | 0.00 | 0.00 | 0.00 | 56 | 1014.4 |
| 20260904214550 | 95 | 123 | 3.0 | 8.0 | 0.00 | 0.00 | 0.00 | 55 | 1014.5 |
| 20260904214031 | 95 | 123 | 2.0 | 7.0 | 0.00 | 0.00 | 0.00 | 56 | 1014.4 |
| 20260904213529 | 95 | 107 | 2.0 | 8.0 | 0.00 | 0.00 | 0.00 | 56 | 1014.5 |
| 20260904213050 | 95 | 287 | 2.0 | 8.0 | 0.00 | 0.00 | 0.00 | 56 | 1014.4 |
| 20260904212534 | 95 | 360 | 2.0 | 8.0 | 0.00 | 0.00 | 0.00 | 56 | 1014.4 |
| 20260904212030 | 95 | 0 | 1.0 | 6.0 | 0.00 | 0.00 | 0.00 | 55 | 1014.4 |
| 20260904211556 | 95 | 0 | 2.0 | 8.0 | 0.00 | 0.00 | 0.00 | 56 | 1014.4 |
| 20260904211033 | 95 | 36 | 3.0 | 9.0 | 0.00 | 0.00 | 0.00 | 54 | 1014.3 |
| 20260904210529 | 96 | 56 | 4.0 | 9.0 | 0.00 | 0.00 | 0.00 | 53 | 1014.3 |
| 20260904210049 | 97 | 46 | 2.0 | 8.0 | 0.00 | 0.00 | 0.00 | 53 | 1014.4 |
| 20260904205529 | 98 | 66 | 1.0 | 4.0 | 0.00 | 0.00 | 0.00 | 51 | 1014.5 |
| 20260904205029 | 99 | 336 | 2.0 | 5.0 | 0.00 | 0.00 | 0.00 | 51 | 1014.4 |
| 20260904204556 | 99 | 13 | 1.0 | 5.0 | 0.00 | 0.00 | 0.00 | 49 | 1014.4 |
| 20260904204027 | 100 | 346 | 2.0 | 5.0 | 0.00 | 0.00 | 0.00 | 49 | 1014.4 |
| 20260904203530 | 100 | 355 | 2.0 | 4.0 | 0.00 | 0.00 | 0.00 | 49 | 1014.5 |
| 20260904203049 | 100 | 261 | 1.0 | 3.0 | 0.00 | 0.00 | 0.00 | 53 | 1014.6 |
| 20260904202529 | 99 | 257 | 1.0 | 3.0 | 0.00 | 0.00 | 0.00 | 49 | 1014.7 |
| 20260904202029 | 98 | 0 | 0.0 | 3.0 | 0.00 | 0.00 | 0.00 | 48 | 1014.7 |
| 20260904201555 | 98 | 250 | 1.0 | 5.0 | 0.00 | 0.00 | 0.00 | 49 | 1014.9 |
| 20260904201029 | 99 | 355 | 2.0 | 5.0 | 0.00 | 0.00 | 0.00 | 49 | 1014.8 |
| 20260904200530 | 99 | 60 | 2.0 | 9.0 | 0.00 | 0.00 | 0.00 | 49 | 1014.8 |
| 20260904195530 | 100 | 319 | 4.0 | 9.0 | 0.00 | 0.00 | 0.00 | 49 | 1015.0 |
| 20260904195028 | 100 | 69 | 0.0 | 5.0 | 0.00 | 0.00 | 0.00 | 48 | 1015.1 |
| 20260904194557 | 100 | 355 | 2.0 | 5.0 | 0.00 | 0.00 | 0.00 | 53 | 1015.2 |
| 20260904194030 | 99 | 171 | 1.0 | 3.0 | 0.00 | 0.00 | 0.00 | 50 | 1015.2 |
| 20260904193530 | 99 | 317 | 1.0 | 4.0 | 0.00 | 0.00 | 0.00 | 49 | 1015.3 |
| 20260904193049 | 99 | 340 | 1.0 | 5.0 | 0.00 | 0.00 | 0.00 | 49 | 1015.4 |
| 20260904192532 | 99 | 284 | 1.0 | 5.0 | 0.00 | 0.00 | 0.00 | 50 | 1015.5 |
| 20260904192029 | 99 | 323 | 2.0 | 5.0 | 0.00 | 0.00 | 0.00 | 50 | 1015.5 |
| 20260904191545 | 99 | 13 | 1.0 | 4.0 | 0.00 | 0.00 | 0.00 | 49 | 1015.6 |
| 20260904191033 | 99 | 289 | 1.0 | 6.0 | 0.00 | 0.00 | 0.00 | 54 | 1015.7 |
| 20260904190529 | 98 | 260 | 1.0 | 6.0 | 0.00 | 0.00 | 0.00 | 55 | 1015.7 |
| 20260904190055 | 98 | 327 | 2.0 | 5.0 | 0.00 | 0.00 | 0.00 | 53 | 1015.8 |
| 20260904185529 | 98 | 33 | 2.0 | 5.0 | 0.00 | 0.00 | 0.00 | 52 | 1015.9 |
| 20260904185029 | 97 | 302 | 1.0 | 3.0 | 0.00 | 0.00 | 0.00 | 56 | 1015.9 |
| 20260904184607 | 97 | 284 | 1.0 | 3.0 | 0.00 | 0.00 | 0.00 | 55 | 1016.1 |
| 20260904184029 | 97 | 346 | 1.0 | 3.0 | 0.00 | 0.00 | 0.00 | 54 | 1016.1 |
| 20260904183528 | 97 | 355 | 0.0 | 2.0 | 0.00 | 0.00 | 0.00 | 54 | 1016.2 |
| 20260904183103 | 97 | 267 | 1.0 | 2.0 | 0.00 | 0.00 | 0.00 | 53 | 1016.2 |
| 20260904182529 | 98 | 0 | 0.0 | 2.0 | 0.00 | 0.00 | 0.00 | 54 | 1016.2 |
| 20260904182035 | 98 | 276 | 1.0 | 4.0 | 0.00 | 0.00 | 0.00 | 52 | 1016.3 |
| 20260904181556 | 98 | 0 | 1.0 | 4.0 | 0.00 | 0.00 | 0.00 | 53 | 1016.3 |
| 20260904181030 | 98 | 101 | 2.0 | 5.0 | 0.00 | 0.00 | 0.00 | 52 | 1016.3 |
| 20260904180530 | 98 | 299 | 2.0 | 7.0 | 0.00 | 0.00 | 0.00 | 54 | 1016.3 |
| 20260904180050 | 98 | 28 | 2.0 | 8.0 | 0.00 | 0.00 | 0.00 | 52 | 1016.4 |
| 20260904175528 | 98 | 89 | 2.0 | 8.0 | 0.00 | 0.00 | 0.00 | 53 | 1016.4 |
| 20260904175029 | 97 | 86 | 1.0 | 5.0 | 0.00 | 0.00 | 0.00 | 55 | 1016.4 |
| 20260904174618 | 97 | 168 | 2.0 | 4.0 | 0.00 | 0.00 | 0.00 | 55 | 1016.5 |
| 20260904174030 | 96 | 85 | 1.0 | 4.0 | 0.00 | 0.00 | 0.00 | 55 | 1016.4 |
| 20260904173529 | 96 | 0 | 0.0 | 3.0 | 0.00 | 0.00 | 0.00 | 54 | 1016.5 |
| 20260904173056 | 96 | 0 | 1.0 | 3.0 | 0.00 | 0.00 | 0.00 | 53 | 1016.6 |
| 20260904172532 | 96 | 11 | 0.0 | 1.0 | 0.00 | 0.00 | 0.00 | 56 | 1016.7 |
| 20260904172030 | 97 | 0 | 0.0 | 1.0 | 0.00 | 0.00 | 0.00 | 54 | 1016.7 |
| 20260904171602 | 97 | 0 | 0.0 | 3.0 | 0.00 | 0.00 | 0.00 | 55 | 1016.9 |
| 20260904171030 | 97 | 0 | 0.0 | 5.0 | 0.00 | 0.00 | 0.00 | 52 | 1016.9 |
| 20260904170529 | 98 | 301 | 1.0 | 5.0 | 0.00 | 0.00 | 0.00 | 52 | 1017.0 |
| 20260904170050 | 98 | 298 | 2.0 | 5.0 | 0.00 | 0.00 | 0.00 | 52 | 1017.0 |
| 20260904165529 | 99 | 0 | 1.0 | 4.0 | 0.00 | 0.00 | 0.00 | 52 | 1017.0 |
| 20260904165030 | 98 | 330 | 1.0 | 5.0 | 0.00 | 0.00 | 0.00 | 53 | 1017.2 |
| 20260904164547 | 98 | 225 | 0.0 | 5.0 | 0.00 | 0.00 | 0.00 | 55 | 1017.2 |
| 20260904164029 | 98 | 325 | 2.0 | 5.0 | 0.00 | 0.00 | 0.00 | 55 | 1017.1 |
| 20260904163530 | 98 | 0 | 1.0 | 5.0 | 0.00 | 0.00 | 0.00 | 54 | 1017.2 |